Simultaneous Nadir Overpasses (SNOs) Predictions

Prediction of SNOs over PacNW region [( 10.00, 139.50) to ( 22.70, 165.60)] between AQUA and NPP Satellites:

Table of predicted SNOs over PacNW region for the next 30.0 days since TLE Epoch: 4/30/2022
Index Date (AQUA) Time (AQUA) AQUA Lat,Lon Date (NPP) Time (NPP) NPP Lat,Lon Distance(km) Time Diff (sec)
1 05/01/2022 02:37:21 22.67, 161.65 05/01/2022 02:36:22 22.08, 158.66 314.55 59
2 05/03/2022 16:16:05 10.02, 141.89 05/03/2022 16:12:35 7.36, 139.29 411.17 210
3 05/09/2022 03:24:30 18.26, 150.62 05/09/2022 03:25:43 17.52, 147.11 380.75 73
4 05/11/2022 15:25:32 10.05, 154.57 05/11/2022 15:22:03 6.22, 151.75 526.33 209
5 05/17/2022 02:34:06 19.09, 163.12 05/17/2022 02:35:05 18.35, 159.63 377.22 59
6 05/19/2022 16:12:35 14.26, 143.47 05/19/2022 16:10:16 14.72, 141.04 267.13 139
7 05/25/2022 03:19:52 10.48, 153.05 05/25/2022 03:23:14 9.60, 149.02 452.38 202
